Regional Weather Roundup
Issued by NWS

Home | Current Version | Previous Version | Text Only | Print | Product List | Glossary On
Versions: 1 2 3 4 5 6 7 8 9 10 11 12 13 14 15 16 17 18 19 20 21 22 23 24 25 26 27 28 29 30 31 32 33 34 35 36 37 38 39 40 41 42 43 44 45 46 47 48 49 50
000
ASHW40 PHFO 240812
RWRHI

WEATHER ROUNDUP FOR HAWAII
NATIONAL WEATHER SERVICE HONOLULU HI
1000 PM HST THU MAR 23 2017

THIS IS AN AUTOMATED REPORT THAT HAS NOT BEEN QUALITY CONTROLLED.

NOTE..."FAIR" INDICATES FEW OR NO CLOUDS BELOW 12,000 FEET WITH NO
SIGNIFICANT WEATHER AND/OR OBSTRUCTIONS TO VISIBILITY.

* - THESE SITES REPORT LIMITED FIELDS

HIZ001>004-240900-
KAUAI-NIIHAU-

CITY           SKY/WX    TMP DP  RH WIND       PRES   REMARKS
LIHUE APT      PTCLDY    74  68  81 E8        30.17R
PORT ALLEN*      N/A     73 N/A N/A E12         N/A
POIPU*           N/A     73 N/A N/A NE7G13      N/A
PRINCEVILLE*     N/A     72 N/A N/A SE5         N/A
KOKOLE POINT*  NOT AVBL
MOLOAA DAIRY*    N/A     73  68  83 E6          N/A
WAIMEA HTS*    NOT AVBL
PUU OPAE*      NOT AVBL
PUU LUA*       NOT AVBL
MAKAHA RIDGE*  NOT AVBL
$$

HIZ005>011-240900-
OAHU-

CITY           SKY/WX    TMP DP  RH WIND       PRES   REMARKS
HONOLULU       PTCLDY    76  66  71 NE9       30.15R
KALAELOA       CLEAR     74  64  71 NE5       30.17R
KANEOHE MCB    NOT AVBL
WHEELER FIELD  PTCLDY    69  64  84 CALM      30.16R
BELLOWS*       NOT AVBL
KAHUKU*        NOT AVBL
WHEELER*       NOT AVBL
WAIANAE HARBOR NOT AVBL
DILLINGHAM*      N/A     88  84  89 CALM        N/A  HX 112
KAHUKU TRN*      N/A     72  70  94 W6G13       N/A
KAWAILOA*        N/A     70  64  83 E5G14       N/A
KII*             N/A     75  70  83 E14         N/A
MAKUA RANGE*     N/A     66  63  88 W6          N/A
OAHU FOREST NW NOT AVBL
SCHOFIELD BRK*   N/A     63  59  88 MISG        N/A
SCHOFIELD S*   NOT AVBL
WAIANAE VLY*   NOT AVBL
KUAOKALA*      NOT AVBL
HONOULIUULI*   NOT AVBL
MOKUOLOE IS*   NOT AVBL
PALEHUA*       NOT AVBL
WAIAWA PHB*    NOT AVBL
$$

HIZ012>013-240900-
MOLOKAI-

CITY           SKY/WX    TMP DP  RH WIND       PRES   REMARKS
MOLOKAI AIRPT    N/A     74  68  81 NE5       30.15R
KALAUPAPA      NOT AVBL
MAKAPULAPAI*   NOT AVBL
MOLOKAI 1*     NOT AVBL
PUU ALII*      NOT AVBL
$$

HIZ016-240900-
KAHOOLAWE-

CITY           SKY/WX    TMP DP  RH WIND       PRES   REMARKS
KAHOOLAWE*     NOT AVBL
HAKIOAWA*      NOT AVBL
HONOKANAIA*      N/A     75  67  76 NE12G26   30.07R
KANELOA*         N/A     73  70  88 E16G26      N/A
KEALIALALO*    NOT AVBL
LUA MAKIKA*    NOT AVBL
$$

HIZ014>015-240900-
LANAI-

CITY           SKY/WX    TMP DP  RH WIND       PRES   REMARKS
LANAI CITY     FAIR      69  66  90 NE6       30.20R
LANAI 1*       NOT AVBL
$$

HIZ017>028-240900-
MAUI-

CITY           SKY/WX    TMP DP  RH WIND       PRES   REMARKS
KAHULUI        CLEAR     74  68  81 E6        30.13R
KAPALUA-W MAUI NOT AVBL
HANA AIRPORT   CLOUDY    73  72  94 E7        30.18S
HANA*            N/A     73 N/A N/A SE5         N/A
HALEAKALA SUMM   N/A     45   7  21 NW2G22      N/A
MAALAEA BAY*   NOT AVBL
HALEAKALA*     NOT AVBL
KAUPO GAP*     NOT AVBL
KULA 1*          N/A     51  37  58 E3          N/A
$$

HIZ023>026-240900-
BIG ISLAND OF HAWAII COAST AND LOWER SLOPES-

CITY           SKY/WX    TMP DP  RH WIND       PRES   REMARKS
KAILUA KONA    CLEAR     77  68  73 S5        30.11R
HILO           RAIN      73  71  93 CALM      30.17R FOG
HONOKAA*         N/A     68 N/A N/A VRB1        N/A
KAWAIHAE MWT*    N/A     79 N/A N/A SE1         N/A
KAWAIHAE*      NOT AVBL
SOUTH POINT*     N/A     72 N/A N/A N15G22      N/A
UPOLU AIRPORT* NOT AVBL
KAMUELA*       CLOUDY    64  64 100 NE13      30.23R
HAKALAU*         N/A     54  54  99 S6          N/A
KALOKO-HONOKO* NOT AVBL
PALI 2*          N/A     66  64  94 SW8G14      N/A
KEALAKOMO*       N/A     75  70  83 NE12G18     N/A
KAUPULEHU*     NOT AVBL
KAPAPALA*        N/A     69  69  99 SE3         N/A
LOWER KAHUKU*  NOT AVBL
PUHE CS*       NOT AVBL
PUHO CS*       NOT AVBL
PTA KEAMUKU*     N/A     61  55  82 CALM        N/A
WAIKOLOA*      NOT AVBL
$$

HIZ027>028-240900-
BIG ISLAND OF HAWAII INTERIOR AND SUMMMITS-

CITY           SKY/WX    TMP DP  RH WIND       PRES   REMARKS
BRADSHAW FIELD PTCLDY    57  52  82 SE7       30.44S
MK VISITOR CEN   N/A     50  28  43 NE9         N/A
MAUNA KEA*       N/A     39   1  20 CALM        N/A
MAUNA LOA*     NOT AVBL
MAUNA LOA 1*   NOT AVBL
PTA KIPUKA*      N/A     75  75 100 S1          N/A
PTA RANGE 17*    N/A     72  61  68 E10G17      N/A
PTA WEST*        N/A     57  54  88 SE8         N/A
NENE CABIN*    NOT AVBL
AHUMOA*        NOT AVBL
PTA PORTABLE*  NOT AVBL
PUU MALI*        N/A     55  41  58 S3          N/A
$$

HIC003-240900-
NORTHWEST ISLANDS-

CITY           SKY/WX    TMP DP  RH WIND       PRES   REMARKS
MIDWAY ISLAND  CLOUDY    70  63  78 W12       29.94R
MIDWAY NOS*    NOT AVBL
FRENCH FRIGATE NOT AVBL
$$

PHZ110>124-180-240900-
BUOY REPORTS

STATION/POSITION TIME  TEMP    WIND        PRES    WAVE   SWELL
                       AIR SEA DIR/SP/G            HT/PER HT/DIR
                 (UTC) (F)     (DEG/KT/KT) (MB)    (FT/S) (FT/D)
BUOY 51001       0750   75 76  130/  8/ 10 1020.8R   6/11   5/330
BUOY 51101       0750   75 77  130/  8/ 10 1021.4R   6/11   5/320
BUOY 51100       NOT AVBL
BUOY 51002       0750   78 78   90/ 16/ 19 1018.8R   7/13   5/290
BUOY 51003       0750   77 78   60/ 12/ 16 1019.7R   5/13   5/290
BUOY 51004       0750      78   80/ 14/ 16 1019.9R   7/ 8   5/100
BARBERS PT BUOY  NOT AVBL
WAIMEA BAY BUOY  0702      74                N/A     4/13   3/310
KAILUA BAY BUOY  0734      77                N/A     5/ 7   2/350
LANAI BUOY       0745      78                N/A     3/14   2/230
BARBERS PT 2     NOT AVBL
PAUWELA MAUI     0739      77                N/A     5/13   2/320
HILO             0742      78                N/A     6/ 8   2/350
KANEOHE BAY BUOY 0725      76                N/A     3/ 7   2/360
HANALEI KAUAI    0752      78                N/A     5/13   3/320
KAHULUI HARBOR   0742   75 78   60/  8/ 11 1020.4R
HONOLULU HARBOR  0742   77 78   60/  3/  5 1021.6R
KILO NALU        NOT AVBL
HILO HARBOR      0742   73 76  200/  3/  5 1021.1R
MOKUOLOE         0736   76 79  100/  6/ 11 1021.2R
NAWILIWILI       0748   76      60/  8/ 10 1021.1R
WHOTS BUOY       NOT AVBL
BUOY 51028       NOT AVBL
$$

......................KEY........................................
  SKY/WX - SKY CONDITIONS/PRESENT WEATHER
  TMP    - TEMPERATURE IN FAHRENHEIT
  DWPT   - DEWPOINT IN FAHRENHEIT
  RH     - RELATIVE HUMIDITY IN PERCENT
  WIND   - DIRECTION AND SPEED /MPH FOR ISLANDS...KTS FOR BUOYS/
  PRES   - MEAN SEA LEVEL PRESSURE IN INCHES OF HG
  VSB    - VISIBILITY IN MILES
  HX     - HEAT INDEX
  WCI    - WIND CHILL INDEX
  VRB    - VARIABLE WIND DIRECTION
  N/A    - NOT AVAILABLE




USA.gov is the U.S. government's official web portal to all federal, state and local government web resources and services.